Location: Aalsum
(53.3404°N, 6.0062°E)
Time: 10:20:43
(UTC+00:00)

Resurs 01 Rocket - Pass Details

Date: 28 January 2023
Orbit: 632 x 643 km, 97.9° (Epoch: 19 March)

Event Time Altitude Azimuth Distance (km) Brightness Sun altitude
Exits shadow 18:20:27 11° 18° (NNE) 1,951 3.9 -19.1°
Drops below altitude 10° 18:20:50 10° 14° (NNE) 2,050 4.0 -19.2°
Sets 18:23:39 0° 356° (N) 2,967 5.1 -19.6°
